Weather History for KCKB - April, 2013

Change the Weather History Date:

Saturday, April 27, 2013

  Actual Average Record
Temperature  
Mean Temperature 54 °F -  
Max Temperature 73 °F 66 °F 91 °F (1957)
Min Temperature 36 °F 39 °F 26 °F (1971)
Degree Days  
Heating Degree Days 10    
Growing Degree Days 4 (Base 50)    
Moisture  
Dew Point 34 °F    
Average Humidity 47    
Maximum Humidity 89    
Minimum Humidity 20    
Precipitation  
Precipitation 0.00 in - - ()
Sea Level Pressure  
Sea Level Pressure 30.26 in    
Wind  
Wind Speed 2 mph (WSW)    
Max Wind Speed 8 mph    
Max Gust Speed -    
Visibility 10 miles    
Events      
Averages and records for this station are not official NWS values.
T = Trace of Precipitation, MM = Missing Value Source: NWS Daily Summary

Daily Weather History Graph

Daily Weather History Graph

Search for Another Location

Airport or City:

Trip Planner

Search our weather history database for the weather conditions in past years. The results will help you decide how hot, cold, wet, or windy it might be!

Date:

Astronomy

Apr. 27, 2013 Rise Set
Actual Time 6:27 AM EDT 8:10 PM EDT
Civil Twilight 5:58 AM EDT 8:39 PM EDT
Nautical Twilight 5:23 AM EDT 9:14 PM EDT
Astronomical Twilight 4:46 AM EDT 9:51 PM EDT
Moon 10:37 PM EDT (4/27) 7:44 AM EDT (4/27)
Length of Visible Light 14h 40m
Length of Day
13h 43m
Waning Gibbous, 95% of the Moon is Illuminated
Apr 27
Waning Gibbous
May 2
Last Quarter
May 9
New
May 18
First Quarter
May 25
Full

Hourly Weather History & Observations

Time (EDT) Temp. Windchill Dew Point Humidity Pressure Visibility Wind Dir Wind Speed Gust Speed Precip Events Conditions
12:53 AM 46.0 °F - 32.0 °F 58% 30.36 in 10.0 mi Calm Calm - N/A   Clear
1:53 AM 44.1 °F - 33.1 °F 65% 30.37 in 10.0 mi Calm Calm - N/A   Clear
2:53 AM 42.1 °F 39.2 °F 33.1 °F 70% 30.35 in 10.0 mi NNE 4.6 mph - N/A   Clear
3:53 AM 39.9 °F - 33.1 °F 77% 30.34 in 10.0 mi Calm Calm - N/A   Clear
4:53 AM 37.9 °F - 32.0 °F 79% 30.35 in 9.0 mi Calm Calm - N/A   Clear
5:53 AM 37.0 °F - 32.0 °F 82% 30.34 in 10.0 mi Calm Calm - N/A   Clear
6:53 AM 36.0 °F - 33.1 °F 89% 30.34 in 9.0 mi Calm Calm - N/A   Clear
7:53 AM 41.0 °F - 35.1 °F 79% 30.35 in 10.0 mi Calm Calm - N/A   Scattered Clouds
8:53 AM 50.0 °F - 35.1 °F 57% 30.35 in 10.0 mi Calm Calm - N/A   Clear
9:53 AM 55.0 °F - 36.0 °F 49% 30.33 in 10.0 mi Calm Calm - N/A   Clear
10:53 AM 61.0 °F - 37.9 °F 42% 30.31 in 10.0 mi NNE 3.5 mph - N/A   Clear
11:53 AM 66.9 °F - 36.0 °F 32% 30.29 in 10.0 mi Variable 3.5 mph - N/A   Clear
12:53 PM 69.1 °F - 30.0 °F 23% 30.26 in 10.0 mi Calm Calm - N/A   Clear
1:53 PM 70.0 °F - 28.9 °F 22% 30.25 in 10.0 mi Variable 3.5 mph - N/A   Clear
2:53 PM 71.1 °F - 28.9 °F 21% 30.22 in 10.0 mi WNW 4.6 mph - N/A   Clear
3:53 PM 73.0 °F - 30.0 °F 20% 30.19 in 10.0 mi Variable 3.5 mph - N/A   Clear
4:53 PM 73.0 °F - 32.0 °F 22% 30.17 in 10.0 mi NW 6.9 mph - N/A   Clear
5:53 PM 72.0 °F - 34.0 °F 25% 30.17 in 10.0 mi WNW 4.6 mph - N/A   Mostly Cloudy
6:53 PM 71.1 °F - 33.1 °F 25% 30.16 in 10.0 mi Calm Calm - N/A   Mostly Cloudy
7:53 PM 71.1 °F - 30.0 °F 22% 30.15 in 10.0 mi Calm Calm - N/A   Overcast
8:53 PM 64.9 °F - 37.9 °F 37% 30.16 in 10.0 mi SSW 8.1 mph - N/A   Overcast
9:53 PM 64.0 °F - 37.9 °F 38% 30.16 in 10.0 mi SSW 5.8 mph - N/A   Overcast
10:53 PM 62.1 °F - 37.9 °F 41% 30.17 in 10.0 mi South 3.5 mph - N/A   Partly Cloudy
11:53 PM 62.1 °F - 37.9 °F 41% 30.16 in 10.0 mi SSE 5.8 mph - N/A   Overcast